Weather in Parshino

Russia / Yaroslavl Oblast     58°39′06″N   39°31′11″E
temp.,
°C
wind,
m/s
gust,
m/s
humid.,
%
clouds,
%
prec.,
mm/h
press.,
hPa
HPBL,
m
17 april, sat
sat1700:00+4ene412785 0.0 1030353
03:00+3ene3128362 0.0 1030306
06:00+2ene311825 0.0 1030299
09:00+7ene59555 0.0 1030607
12:00+11ene46415 0.0 10301112
15:00+13ene46385 0.0 10291371
18:00+11ene47490 0.0 1028715
21:00+6ne311660 0.0 1029300
18 april, sun
sun1800:00+4ne310770 0.0 1029258
03:00+3ene310811 0.0 1030234
06:00+3ene31081100 0.0 1030262
09:00+7ene4861100 0.0 1030539
12:00+10ene5751100 0.0 10291175
15:00+11ene5749100 0.0 10291413
18:00+9ene4858100 0.0 1029941
21:00+6ene497599 0.0 1031622
19 april, mon
mon1900:00+4ene3976100 0.0 1032529
03:00+2ene310825 0.0 1032305
06:00+1ene310760 0.0 1032351
09:00+5e58490 0.0 1033840
12:00+8e57360 0.0 10321535
15:00+9e57345 0.0 10311794
18:00+8e47435 0.0 10311426
21:00+4e311630 0.0 1031285
20 april, tue
tue2000:00+2e311640 0.0 1031370
03:00+1e310705 0.0 1031323
06:000e3117067 0.0 1031361
09:00+5ese59465 0.0 1029871
12:00+9ese694590 0.0 10271570
15:00+10ese694357 0.0 10241766
18:00+9e51150100 0.0 10221366
21:00+7ese61353100 0.0 10211126
21 april, wed
wed2100:00+6ese61451100 0.0 1018954
03:00+4ese71659100 0.1 1014932
06:00+3ese61683100 1.1 1011944
09:00+3ese61694100 3.2 1010876
12:00+4ese71690100 1.3 1009907
15:00+5se71691100 1.8 10081162
18:00+7sse71392100 0.4 10091158
21:00+6sse51284100 0.6 1012908